NORTHEAST SUFFOLK  -  Winter Weather Advisory Winter Weather Advisory        NORTHERN NASSAU  -  Winter Weather Advisory Winter Weather Advisory        NORTHWEST SUFFOLK  -  Winter Weather Advisory Winter Weather Advisory        SOUTHEAST SUFFOLK  -  Winter Weather Advisory Winter Weather Advisory        SOUTHERN NASSAU  -  Winter Weather Advisory Winter Weather Advisory        SOUTHWEST SUFFOLK  -  Winter Weather Advisory Winter Weather Advisory      

Active alerts

Northern Nassau
  Details for Northern Nassau Winter Weather Advisory
Southern Nassau
  Details for Southern Nassau Winter Weather Advisory
Northwest Suffolk
  Details for Northwest Suffolk Winter Weather Advisory
Southwest Suffolk
  Details for Southwest Suffolk Winter Weather Advisory
Northeast Suffolk
  Details for Northeast Suffolk Winter Weather Advisory
Southeast Suffolk
  Details for Southeast Suffolk Winter Weather Advisory


WXM80 ListenWXM80 Stop

You find our weather info also at:

UK Metoffice

WeatherCloud

Weather Underground

Northeastern Weather Network

AWEKAS

Citizen Weather Observer Program (CWOP)

HAMweather, WeatherForYou, PWS Weather


Weather Underground History page Text

Daily Summary for November 24, 2017 Units:  Metric    English   Both
« Previous Day
Next Day »
Daily Weekly Monthly Yearly Custom
  High: Low: Average:
Temperature: 9.4 °C -0.7 °C 4.1 °C
Dew Point: 2.6 °C -3.3 °C -0.5 °C
Humidity: 89 % 54 % 73 %
Wind Speed: 6.6 km/h 0 km/h 1.6 km/h
Wind Gust: 13 km/h - -
Wind:- - WSW
Pressure: 1018.5 hPa 1014.1 hPa -
Precipitation: 0.25 mm    
Historical Graphs
 
 
Tabular Data for November 24, 2017
Time Temperature Dew Point Pressure Wind Wind Speed Wind Gust Humidity Rainfall Rate (Hourly)
00:02 -0.5 °C -3.3 °C 1017.8 hPa WSW 0.5 km/h 1.9 km/h 81 % 0 mm
00:07 -0.6 °C -3.3 °C 1017.8 hPa WSW 0.5 km/h 3.7 km/h 82 % 0 mm
00:12 -0.6 °C -3.3 °C 1017.8 hPa WSW 1.3 km/h 1.9 km/h 82 % 0 mm
00:17 -0.6 °C -3.3 °C 1017.8 hPa Calm     82 % 0 mm
00:22 -0.6 °C -3.3 °C 1017.5 hPa WSW 1.4 km/h 3.7 km/h 82 % 0 mm
00:27 -0.6 °C -3.3 °C 1017.5 hPa WSW 0.6 km/h 1.9 km/h 82 % 0 mm
00:32 -0.6 °C -3.2 °C 1017.5 hPa WSW 0.6 km/h 3.7 km/h 83 % 0 mm
00:42 -0.6 °C -3.2 °C 1017.5 hPa WSW 1.8 km/h 3.7 km/h 83 % 0 mm
00:47 -0.6 °C -3 °C 1017.5 hPa WSW 0.3 km/h 1.9 km/h 84 % 0 mm
00:52 -0.6 °C -3 °C 1017.5 hPa Calm     84 % 0 mm
00:57 -0.6 °C -3 °C 1017.5 hPa Calm     84 % 0 mm
01:02 -0.6 °C -3 °C 1017.5 hPa Calm   1.9 km/h 84 % 0 mm
01:12 -0.6 °C -3 °C 1017.2 hPa Calm     84 % 0 mm
01:17 -0.6 °C -3 °C 1017.2 hPa WSW 1 km/h 3.2 km/h 84 % 0 mm
01:23 -0.6 °C -3 °C 1017.2 hPa WSW 0.2 km/h 1.9 km/h 84 % 0 mm
01:33 -0.6 °C -2.8 °C 1017.5 hPa Calm     85 % 0 mm
01:38 -0.6 °C -2.8 °C 1017.5 hPa WSW 0.5 km/h 1.6 km/h 85 % 0 mm
01:43 -0.6 °C -2.8 °C 1017.5 hPa Calm     85 % 0 mm
01:48 -0.6 °C -2.8 °C 1017.5 hPa WSW 1.9 km/h 3.7 km/h 85 % 0 mm
01:58 -0.6 °C -2.9 °C 1017.5 hPa WSW 1.6 km/h 3.7 km/h 84 % 0 mm
02:03 -0.6 °C -2.9 °C 1017.5 hPa Calm     84 % 0 mm
02:08 -0.5 °C -2.9 °C 1017.5 hPa WSW 0.8 km/h 1.9 km/h 84 % 0 mm
02:18 -0.4 °C -2.8 °C 1017.5 hPa Calm   1.9 km/h 84 % 0 mm
02:23 -0.4 °C -2.8 °C 1017.5 hPa Calm     84 % 0 mm
02:38 -0.4 °C -2.8 °C 1017.5 hPa Calm     84 % 0 mm
02:43 -0.4 °C -2.8 °C 1017.5 hPa WSW 0.5 km/h 1.9 km/h 84 % 0 mm
02:53 -0.4 °C -2.9 °C 1017.5 hPa WSW 0.5 km/h 1.9 km/h 83 % 0 mm
02:58 -0.4 °C -2.9 °C 1017.5 hPa WSW 1.3 km/h 3.7 km/h 83 % 0 mm
03:03 -0.4 °C -2.9 °C 1017.5 hPa WSW 0.2 km/h 1.9 km/h 83 % 0 mm
03:08 -0.4 °C -3 °C 1017.5 hPa WSW 3.2 km/h 5.6 km/h 83 % 0 mm
03:13 -0.5 °C -3.1 °C 1017.5 hPa WSW 1 km/h 3.7 km/h 83 % 0 mm
03:23 -0.6 °C -2.9 °C 1017.5 hPa WSW 0.3 km/h 3.7 km/h 84 % 0 mm
03:33 -0.6 °C -2.8 °C 1017.5 hPa Calm     85 % 0 mm
03:38 -0.6 °C -2.8 °C 1017.5 hPa Calm   1.6 km/h 85 % 0 mm
03:54 -0.6 °C -2.8 °C 1017.5 hPa Calm   1.9 km/h 85 % 0 mm
03:59 -0.7 °C -2.9 °C 1017.2 hPa WSW 0.2 km/h 3.7 km/h 85 % 0 mm
04:04 -0.7 °C -2.9 °C 1017.2 hPa WSW 2.1 km/h 5.6 km/h 85 % 0 mm
04:09 -0.7 °C -2.9 °C 1017.5 hPa WSW 1.9 km/h 5.6 km/h 85 % 0 mm
04:14 -0.6 °C -2.7 °C 1017.5 hPa WSW 2.7 km/h 5.6 km/h 86 % 0 mm
04:19 -0.6 °C -2.6 °C 1017.2 hPa WSW 2.7 km/h 3.7 km/h 86 % 0 mm
04:24 -0.5 °C -2.6 °C 1017.2 hPa WSW 2.3 km/h 5.6 km/h 86 % 0 mm
04:29 -0.5 °C -2.6 °C 1017.2 hPa WSW 1.8 km/h 3.7 km/h 86 % 0 mm
04:34 -0.5 °C -2.6 °C 1017.2 hPa WSW 1.4 km/h 3.7 km/h 86 % 0 mm
04:39 -0.4 °C -2.5 °C 1017.2 hPa WSW 2.3 km/h 3.7 km/h 86 % 0 mm
04:49 -0.4 °C -2.5 °C 1017.2 hPa WSW 1.6 km/h 3.7 km/h 86 % 0 mm
04:54 -0.4 °C -2.5 °C 1017.5 hPa WSW 2.3 km/h 3.7 km/h 86 % 0 mm
04:59 -0.4 °C -2.4 °C 1017.5 hPa WSW 2.3 km/h 5.6 km/h 86 % 0 mm
05:04 -0.3 °C -2.4 °C 1017.5 hPa WSW 0.8 km/h 5.6 km/h 86 % 0 mm
05:09 -0.3 °C -2.5 °C 1017.5 hPa WSW 1.8 km/h 4.8 km/h 85 % 0 mm
05:14 -0.3 °C -2.5 °C 1017.8 hPa WSW 0.8 km/h 3.7 km/h 85 % 0 mm
05:19 -0.2 °C -2.4 °C 1017.8 hPa WSW 0.8 km/h 3.7 km/h 85 % 0 mm
05:24 -0.2 °C -2.4 °C 1017.8 hPa WSW 2.3 km/h 3.7 km/h 85 % 0 mm
05:29 -0.2 °C -2.4 °C 1017.8 hPa WSW 0.8 km/h 3.2 km/h 85 % 0 mm
05:34 -0.2 °C -2.4 °C 1017.8 hPa WSW 3.2 km/h 4.8 km/h 85 % 0 mm
05:39 -0.2 °C -2.4 °C 1017.8 hPa WSW 2.4 km/h 3.7 km/h 85 % 0 mm
05:44 -0.3 °C -2.7 °C 1017.5 hPa Calm     84 % 0 mm
05:49 -0.3 °C -2.7 °C 1017.8 hPa Calm     84 % 0 mm
05:55 -0.3 °C -2.7 °C 1017.8 hPa Calm   1.9 km/h 84 % 0 mm
06:00 -0.4 °C -2.8 °C 1017.8 hPa Calm     84 % 0 mm
06:05 -0.4 °C -2.8 °C 1017.8 hPa Calm     84 % 0 mm
06:10 -0.5 °C -2.9 °C 1017.8 hPa Calm     84 % 0 mm
06:15 -0.5 °C -2.9 °C 1018.2 hPa Calm     84 % 0 mm
06:20 -0.6 °C -2.9 °C 1018.2 hPa Calm     84 % 0 mm
06:25 -0.6 °C -2.9 °C 1018.2 hPa Calm     84 % 0 mm
06:30 -0.6 °C -3.1 °C 1018.2 hPa Calm     83 % 0 mm
06:35 -0.6 °C -3.1 °C 1018.2 hPa Calm     83 % 0 mm
06:40 -0.6 °C -3.1 °C 1018.2 hPa Calm     83 % 0 mm
06:45 -0.6 °C -3.2 °C 1018.5 hPa Calm     83 % 0 mm
06:50 -0.6 °C -3.2 °C 1018.2 hPa WSW 0.3 km/h 1.6 km/h 83 % 0 mm
06:55 -0.7 °C -3.2 °C 1018.2 hPa Calm     83 % 0 mm
07:01 -0.7 °C -3.1 °C 1018.5 hPa WSW 2.1 km/h 3.7 km/h 84 % 0 mm
07:06 -0.7 °C -3.1 °C 1018.5 hPa WSW 0.3 km/h 1.9 km/h 84 % 0 mm
07:11 -0.7 °C -3.1 °C 1018.5 hPa WSW 1.3 km/h 3.7 km/h 84 % 0 mm
07:16 -0.7 °C -3.1 °C 1018.5 hPa WSW 3.7 km/h 5.6 km/h 84 % 0 mm
07:21 -0.7 °C -3.1 °C 1018.5 hPa WSW 3.9 km/h 6.4 km/h 84 % 0 mm
07:26 -0.6 °C -3.2 °C 1018.5 hPa SW 2.9 km/h 9.3 km/h 83 % 0 mm
07:31 -0.5 °C -3.1 °C 1018.5 hPa SW 3.5 km/h 5.6 km/h 83 % 0 mm
07:36 -0.3 °C -2.9 °C 1018.5 hPa SW 5 km/h 9.3 km/h 83 % 0 mm
07:41 -0.2 °C -2.8 °C 1018.5 hPa SW 4.2 km/h 5.6 km/h 83 % 0 mm
07:46 -0.1 °C -2.8 °C 1018.5 hPa SW 2.7 km/h 4.8 km/h 82 % 0 mm
07:51 0.1 °C -2.7 °C 1018.5 hPa SW 0.8 km/h 1.9 km/h 82 % 0 mm
07:56 0.2 °C -2.5 °C 1018.5 hPa SW 1.1 km/h 3.7 km/h 82 % 0 mm
08:01 0.4 °C -2.3 °C 1018.5 hPa SW 0.8 km/h 3.7 km/h 82 % 0 mm
08:06 0.6 °C -2.3 °C 1018.5 hPa SW 0.6 km/h 3.7 km/h 81 % 0 mm
08:11 0.7 °C -2.2 °C 1018.5 hPa Calm   1.9 km/h 81 % 0 mm
08:16 0.9 °C -2.1 °C 1018.5 hPa SW 1.9 km/h 5.6 km/h 80 % 0 mm
08:21 1.1 °C -1.9 °C 1018.5 hPa SW 0.6 km/h 5.6 km/h 80 % 0 mm
08:26 1.3 °C -1.8 °C 1018.5 hPa WSW 1.8 km/h 3.7 km/h 80 % 0 mm
08:31 1.5 °C -1.6 °C 1018.5 hPa WSW 1.1 km/h 3.7 km/h 80 % 0 mm
08:36 1.7 °C -1.4 °C 1018.5 hPa West 1.3 km/h 3.7 km/h 80 % 0 mm
08:41 1.9 °C -1.4 °C 1018.2 hPa West 4.3 km/h 7.4 km/h 79 % 0 mm
08:47 2.2 °C -1.1 °C 1018.2 hPa West 6.3 km/h 9.3 km/h 79 % 0 mm
08:52 2.5 °C -0.9 °C 1018.2 hPa WSW 5.3 km/h 13 km/h 78 % 0 mm
08:57 2.9 °C -0.7 °C 1018.2 hPa West 1.6 km/h 5.6 km/h 77 % 0 mm
09:02 3.3 °C -0.6 °C 1018.2 hPa WNW 2.7 km/h 7.4 km/h 76 % 0 mm
09:07 3.7 °C -0.5 °C 1018.5 hPa WSW 0.5 km/h 1.9 km/h 74 % 0 mm
09:12 4.2 °C -0.2 °C 1018.5 hPa West 1.4 km/h 3.7 km/h 73 % 0 mm
09:17 4.5 °C -0.1 °C 1018.5 hPa West 2.7 km/h 5.6 km/h 72 % 0 mm
09:22 4.9 °C 0.3 °C 1018.5 hPa WSW 2.1 km/h 6.4 km/h 72 % 0 mm
09:27 5.3 °C 0.4 °C 1018.2 hPa Calm   1.6 km/h 71 % 0 mm
09:32 5.7 °C 0.4 °C 1018.2 hPa Calm     69 % 0 mm
09:37 6 °C 0.3 °C 1018.2 hPa WNW 2.9 km/h 3.7 km/h 67 % 0 mm
09:42 6.3 °C 0.2 °C 1018.2 hPa WSW 2.7 km/h 5.6 km/h 65 % 0 mm
09:48 6.7 °C 0.3 °C 1018.2 hPa WSW 1.6 km/h 5.6 km/h 64 % 0 mm
09:53 7 °C 0.7 °C 1018.2 hPa SW 1.6 km/h 3.7 km/h 64 % 0 mm
09:54 7.1 °C 0.6 °C 1018.2 hPa West 1.8 km/h 1.9 km/h 63 % 0 mm
10:00 7.3 °C 0.3 °C 1018.2 hPa WSW 2.7 km/h 5.6 km/h 61 % 0 mm
10:05 7.5 °C 0.2 °C 1018.2 hPa WSW 0.2 km/h 7.4 km/h 60 % 0 mm
10:10 7.7 °C 0.4 °C 1017.8 hPa SW 3.5 km/h 5.6 km/h 60 % 0 mm
10:15 7.9 °C 0.4 °C 1018.2 hPa WNW 2.6 km/h 6.4 km/h 59 % 0 mm
10:20 8.1 °C 0.1 °C 1018.2 hPa WNW 4.7 km/h 7.4 km/h 57 % 0 mm
10:25 8.2 °C 0.4 °C 1018.2 hPa WNW 0.6 km/h 3.7 km/h 58 % 0 mm
10:30 8.2 °C -0.1 °C 1018.2 hPa WNW 3.9 km/h 5.6 km/h 56 % 0 mm
10:35 8.3 °C 0 °C 1018.2 hPa SW 1.6 km/h 5.6 km/h 56 % 0 mm
10:40 8.3 °C -0.2 °C 1018.2 hPa SW 0.2 km/h 1.6 km/h 55 % 0 mm
10:45 8.4 °C -0.2 °C 1018.2 hPa NW 4.8 km/h 5.6 km/h 55 % 0 mm
10:46 8.4 °C -0.4 °C 1018.2 hPa NW 2.1 km/h 7.4 km/h 54 % 0 mm
10:51 8.3 °C -0.2 °C 1017.8 hPa West 5 km/h 8 km/h 55 % 0 mm
10:56 8.3 °C 0 °C 1017.8 hPa WNW 3.5 km/h 5.6 km/h 56 % 0 mm
11:01 8.2 °C -0.1 °C 1017.8 hPa WSW 2.1 km/h 6.4 km/h 56 % 0 mm
11:06 8.1 °C -0.4 °C 1017.8 hPa West 5.5 km/h 9.7 km/h 55 % 0 mm
11:11 7.9 °C -0.1 °C 1017.8 hPa NW 1.4 km/h 4.8 km/h 57 % 0.25 mm
11:16 7.8 °C -0.2 °C 1017.8 hPa WNW 4.2 km/h 6.4 km/h 57 % 0.25 mm
11:21 7.8 °C -0.4 °C 1017.8 hPa WNW 6.1 km/h 9.3 km/h 56 % 0.25 mm
11:26 7.7 °C -0.8 °C 1017.5 hPa WNW 6.4 km/h 7.4 km/h 55 % 0.25 mm
11:31 7.6 °C -0.6 °C 1017.5 hPa West 6.6 km/h 9.3 km/h 56 % 0.25 mm
11:36 7.5 °C -0.7 °C 1017.5 hPa WNW 3.2 km/h 5.6 km/h 56 % 0.25 mm
11:41 7.5 °C -0.5 °C 1017.2 hPa WNW 4.3 km/h 11.1 km/h 57 % 0.25 mm
11:47 7.4 °C -0.8 °C 1017.2 hPa SW 1.9 km/h 5.6 km/h 56 % 0.25 mm
11:52 7.5 °C 0.2 °C 1017.2 hPa NW 1.4 km/h 7.4 km/h 60 % 0.25 mm
11:57 7.5 °C -0.2 °C 1017.2 hPa NW 1.8 km/h 6.4 km/h 58 % 0.25 mm
12:02 7.6 °C 0.5 °C 1017.2 hPa WNW 4.8 km/h 9.3 km/h 61 % 0.25 mm
12:07 7.7 °C 0.8 °C 1017.2 hPa WNW 4.5 km/h 11.1 km/h 62 % 0.25 mm
12:12 7.7 °C 0.8 °C 1017.2 hPa NW 3.2 km/h 9.7 km/h 62 % 0 mm
12:17 7.8 °C 1.2 °C 1017.2 hPa North 5 km/h 7.4 km/h 63 % 0 mm
12:22 7.8 °C 1.2 °C 1017.2 hPa NW 4 km/h 7.4 km/h 63 % 0 mm
12:27 7.8 °C 1.2 °C 1017.2 hPa NW 6.6 km/h 11.1 km/h 63 % 0 mm
12:32 7.9 °C 1.5 °C 1016.8 hPa North 4.3 km/h 6.4 km/h 64 % 0 mm
12:37 7.9 °C 1.5 °C 1016.8 hPa NNW 4 km/h 9.7 km/h 64 % 0 mm
12:42 7.9 °C 1.6 °C 1017.2 hPa North 5.5 km/h 8 km/h 64 % 0 mm
12:47 8 °C 1.8 °C 1016.8 hPa NW 3.2 km/h 7.4 km/h 65 % 0 mm
12:52 8 °C 1.6 °C 1016.8 hPa North 3.2 km/h 5.6 km/h 64 % 0 mm
12:57 8.1 °C 1.7 °C 1016.8 hPa NW 1.9 km/h 5.6 km/h 64 % 0 mm
13:02 8.1 °C 1.7 °C 1016.5 hPa NNW 4.2 km/h 5.6 km/h 64 % 0 mm
13:07 8.2 °C 1.4 °C 1016.5 hPa NNW 3.7 km/h 9.3 km/h 62 % 0 mm
13:12 8.3 °C 1.4 °C 1016.5 hPa NNW 4.7 km/h 5.6 km/h 62 % 0 mm
13:17 8.4 °C 1.5 °C 1016.5 hPa North 3.4 km/h 9.7 km/h 62 % 0 mm
13:23 8.6 °C 1.4 °C 1016.5 hPa NW 4 km/h 6.4 km/h 61 % 0 mm
13:28 8.7 °C 1.6 °C 1016.5 hPa WNW 2.9 km/h 5.6 km/h 61 % 0 mm
13:33 8.8 °C 1.9 °C 1016.5 hPa WNW 3.2 km/h 7.4 km/h 62 % 0 mm
13:38 9 °C 1.7 °C 1016.1 hPa NW 4.5 km/h 7.4 km/h 60 % 0 mm
13:44 9.2 °C 1.6 °C 1016.1 hPa NW 2.3 km/h 9.3 km/h 59 % 0 mm
13:49 9.3 °C 1.7 °C 1016.1 hPa NW 4.7 km/h 7.4 km/h 59 % 0 mm
13:54 9.4 °C 1.6 °C 1015.8 hPa NW 1.1 km/h 5.6 km/h 58 % 0 mm
13:59 9.4 °C 1.3 °C 1015.8 hPa NNW 3.2 km/h 5.6 km/h 57 % 0 mm
14:04 9.4 °C 1.6 °C 1015.8 hPa WNW 2.7 km/h 5.6 km/h 58 % 0 mm
14:09 9.4 °C 1.6 °C 1015.8 hPa NNE 3.7 km/h 6.4 km/h 58 % 0 mm
14:10 9.4 °C 1.6 °C 1015.8 hPa NNE 3.7 km/h 5.6 km/h 58 % 0 mm
14:15 9.3 °C 1.5 °C 1015.8 hPa NNE 3.4 km/h 5.6 km/h 58 % 0 mm
14:20 9.2 °C 1.1 °C 1015.8 hPa ENE 2.7 km/h 5.6 km/h 57 % 0 mm
14:25 9.1 °C 1.1 °C 1015.8 hPa ENE 0.3 km/h 3.7 km/h 57 % 0 mm
14:30 9.1 °C 1 °C 1015.5 hPa Calm     57 % 0 mm
14:35 9 °C 1.2 °C 1015.5 hPa ENE 1.9 km/h 3.7 km/h 58 % 0 mm
14:40 8.9 °C 1.1 °C 1015.5 hPa ENE 1.1 km/h 3.7 km/h 58 % 0 mm
14:45 8.8 °C 1.3 °C 1015.5 hPa ENE 0.2 km/h 1.9 km/h 59 % 0 mm
14:50 8.8 °C 0.9 °C 1015.5 hPa ENE 1 km/h 3.7 km/h 58 % 0 mm
14:55 8.8 °C 1.4 °C 1015.5 hPa NE 0.3 km/h 3.7 km/h 60 % 0 mm
15:00 8.7 °C 1.1 °C 1015.1 hPa NE 2.1 km/h 3.7 km/h 59 % 0 mm
15:05 8.6 °C 1.3 °C 1015.1 hPa NE 1.1 km/h 3.2 km/h 60 % 0 mm
15:10 8.6 °C 1.4 °C 1015.1 hPa NE 0.6 km/h 3.7 km/h 61 % 0 mm
15:15 8.5 °C 1.4 °C 1015.1 hPa NE 0.5 km/h 3.7 km/h 61 % 0 mm
15:20 8.4 °C 1.3 °C 1015.1 hPa Calm   1.9 km/h 61 % 0 mm
15:25 8.4 °C 1.6 °C 1015.1 hPa Calm   3.7 km/h 62 % 0 mm
15:30 8.4 °C 1.5 °C 1015.1 hPa Calm     62 % 0 mm
15:35 8.3 °C 1.2 °C 1015.1 hPa Calm     61 % 0 mm
15:40 8.3 °C 1.2 °C 1015.1 hPa SSE 1.1 km/h 3.7 km/h 61 % 0 mm
15:45 8.3 °C 0.5 °C 1015.1 hPa Calm     58 % 0 mm
15:50 8.2 °C 0.2 °C 1015.1 hPa Calm     57 % 0 mm
15:55 8.2 °C -0.1 °C 1015.1 hPa SSE 0.8 km/h 5.6 km/h 56 % 0 mm
16:00 8.2 °C -0.1 °C 1015.1 hPa SW 0.5 km/h 3.7 km/h 56 % 0 mm
16:05 8.2 °C -0.1 °C 1015.5 hPa SW 0.8 km/h 3.7 km/h 56 % 0 mm
16:10 8.1 °C -0.2 °C 1015.5 hPa Calm   1.9 km/h 56 % 0 mm
16:15 8.1 °C -0.4 °C 1015.5 hPa Calm     55 % 0 mm
16:20 8 °C -0.5 °C 1015.5 hPa Calm     55 % 0 mm
16:25 7.9 °C -0.6 °C 1015.5 hPa SSW 1.8 km/h 3.7 km/h 55 % 0 mm
16:30 7.8 °C -0.7 °C 1015.5 hPa Calm   1.9 km/h 55 % 0 mm
16:35 7.8 °C -0.4 °C 1015.5 hPa Calm     56 % 0 mm
16:40 7.7 °C -0.3 °C 1015.1 hPa SSW 2.1 km/h 3.7 km/h 57 % 0 mm
16:45 7.6 °C -0.4 °C 1015.5 hPa SSW 1.4 km/h 3.2 km/h 57 % 0 mm
16:50 7.5 °C -0.5 °C 1015.5 hPa SSW 0.8 km/h 1.6 km/h 57 % 0 mm
16:55 7.4 °C -0.3 °C 1015.5 hPa SSW 2.7 km/h 3.7 km/h 58 % 0 mm
17:01 7.3 °C -0.2 °C 1015.5 hPa SSW 2.7 km/h 4.8 km/h 59 % 0 mm
17:06 7.2 °C -0.3 °C 1015.5 hPa SSW 2.3 km/h 3.7 km/h 59 % 0 mm
17:11 7.1 °C -0.2 °C 1015.5 hPa SSW 4.2 km/h 5.6 km/h 60 % 0 mm
17:16 6.9 °C -0.1 °C 1015.5 hPa SSW 1.3 km/h 5.6 km/h 61 % 0 mm
17:21 6.8 °C -0.2 °C 1015.5 hPa SSW 3.2 km/h 3.7 km/h 61 % 0 mm
17:26 6.7 °C -0.1 °C 1015.8 hPa South 2.6 km/h 5.6 km/h 62 % 0 mm
17:31 6.6 °C 0.1 °C 1015.8 hPa SSW 1.6 km/h 4.8 km/h 63 % 0 mm
17:36 6.5 °C -0.1 °C 1015.8 hPa SSW 1.6 km/h 6.4 km/h 63 % 0 mm
17:41 6.4 °C -0.1 °C 1015.8 hPa SSW 1.6 km/h 4.8 km/h 63 % 0 mm
17:46 6.3 °C 0 °C 1015.8 hPa SSW 1.6 km/h 4.8 km/h 64 % 0 mm
17:51 6.3 °C 0.2 °C 1015.8 hPa SSW 0.6 km/h   65 % 0 mm
17:56 6.2 °C 0.1 °C 1015.8 hPa SSW 0.5 km/h 3.7 km/h 65 % 0 mm
18:01 6.1 °C 0 °C 1015.8 hPa Calm     65 % 0 mm
18:06 6 °C 0.1 °C 1015.8 hPa Calm   1.9 km/h 66 % 0 mm
18:10 5.9 °C 0.1 °C 1015.8 hPa Calm     66 % 0 mm
18:16 5.8 °C -0.1 °C 1015.8 hPa Calm     66 % 0 mm
18:21 5.8 °C 0.1 °C 1015.8 hPa Calm     67 % 0 mm
18:26 5.7 °C 0 °C 1015.8 hPa Calm     67 % 0 mm
18:31 5.6 °C 0.2 °C 1015.8 hPa Calm     68 % 0 mm
18:36 5.5 °C 0.1 °C 1015.8 hPa Calm     68 % 0 mm
18:41 5.3 °C 0.1 °C 1015.8 hPa Calm     69 % 0 mm
18:46 5.2 °C 0.2 °C 1015.8 hPa Calm     70 % 0 mm
18:51 5.1 °C 0.1 °C 1015.8 hPa Calm     70 % 0 mm
18:56 4.9 °C -0.1 °C 1015.8 hPa Calm     70 % 0 mm
19:01 4.8 °C 0 °C 1015.8 hPa Calm     71 % 0 mm
19:06 4.7 °C 0.1 °C 1015.8 hPa SSW 0.2 km/h   72 % 0 mm
19:11 4.5 °C 0.1 °C 1015.8 hPa Calm     73 % 0 mm
19:16 4.4 °C 0.2 °C 1015.8 hPa Calm     74 % 0 mm
19:21 4.3 °C 0.1 °C 1015.8 hPa Calm     74 % 0 mm
19:26 4.2 °C -0.1 °C 1015.8 hPa Calm     74 % 0 mm
19:36 3.9 °C -0.1 °C 1015.5 hPa Calm     75 % 0 mm
19:41 3.8 °C -0.1 °C 1015.5 hPa Calm     76 % 0 mm
19:46 3.7 °C -0.1 °C 1015.5 hPa Calm     76 % 0 mm
19:56 3.5 °C -0.2 °C 1015.8 hPa Calm     77 % 0 mm
20:01 3.4 °C -0.2 °C 1015.8 hPa Calm     77 % 0 mm
20:06 3.3 °C -0.2 °C 1015.8 hPa Calm     78 % 0 mm
20:11 3.2 °C -0.2 °C 1015.8 hPa Calm     78 % 0 mm
20:16 3.2 °C -0.2 °C 1015.5 hPa Calm     78 % 0 mm
20:21 3.2 °C -0.1 °C 1015.5 hPa Calm     79 % 0 mm
20:26 3.1 °C -0.2 °C 1015.5 hPa Calm     79 % 0 mm
20:31 3.1 °C 0.1 °C 1015.8 hPa SSW 1.3 km/h 3.7 km/h 81 % 0 mm
20:46 3 °C 0.2 °C 1015.5 hPa Calm     82 % 0 mm
20:51 2.9 °C 0.2 °C 1015.5 hPa Calm     82 % 0 mm
20:56 2.9 °C 0.2 °C 1015.5 hPa Calm     82 % 0 mm
21:01 2.9 °C 0.1 °C 1015.5 hPa Calm     82 % 0 mm
21:06 2.8 °C 0.1 °C 1015.5 hPa Calm     82 % 0 mm
21:11 2.8 °C 0.1 °C 1015.5 hPa Calm     82 % 0 mm
21:16 2.8 °C 0 °C 1015.5 hPa Calm     82 % 0 mm
21:21 2.7 °C -0.1 °C 1015.5 hPa Calm     82 % 0 mm
21:26 2.7 °C 0.1 °C 1015.5 hPa SSW 0.3 km/h 1.6 km/h 83 % 0 mm
21:31 2.7 °C 0.2 °C 1015.5 hPa Calm   1.9 km/h 84 % 0 mm
21:36 2.7 °C 0.4 °C 1015.1 hPa Calm   1.9 km/h 85 % 0 mm
21:41 2.7 °C 0.6 °C 1015.1 hPa Calm     86 % 0 mm
21:46 2.8 °C 0.8 °C 1015.1 hPa WSW 0.2 km/h 1.9 km/h 87 % 0 mm
21:51 2.9 °C 1.1 °C 1015.1 hPa SW 2.9 km/h 3.7 km/h 88 % 0 mm
21:56 3.1 °C 1.4 °C 1015.1 hPa SW 1.9 km/h 3.7 km/h 89 % 0 mm
22:01 3.2 °C 1.6 °C 1014.8 hPa SW 0.5 km/h 3.7 km/h 89 % 0 mm
22:06 3.4 °C 1.7 °C 1015.1 hPa Calm   1.6 km/h 89 % 0 mm
22:12 3.5 °C 1.8 °C 1015.1 hPa SW 1.9 km/h 5.6 km/h 89 % 0 mm
22:17 3.6 °C 1.9 °C 1014.8 hPa SW 1.8 km/h 8 km/h 89 % 0 mm
22:22 3.8 °C 2.1 °C 1014.8 hPa SW 2.4 km/h 3.7 km/h 89 % 0 mm
22:25 3.8 °C 2.2 °C 1014.8 hPa SW 5 km/h 11.3 km/h 89 % 0 mm
22:26 3.9 °C 2.2 °C 1014.8 hPa SW 3.5 km/h 13 km/h 89 % 0 mm
22:27 3.9 °C 2.3 °C 1014.8 hPa SW 4.8 km/h 8 km/h 89 % 0 mm
22:32 4.1 °C 2.4 °C 1014.8 hPa SW 3.5 km/h 6.4 km/h 89 % 0 mm
22:37 4.2 °C 2.6 °C 1014.8 hPa SW 1.9 km/h 3.7 km/h 89 % 0 mm
22:38 4.2 °C 2.6 °C 1014.8 hPa SW 2.3 km/h 6.4 km/h 89 % 0 mm
22:43 4.3 °C 2.5 °C 1014.8 hPa SW 1 km/h 5.6 km/h 88 % 0 mm
22:48 4.4 °C 2.6 °C 1014.8 hPa SW 0.3 km/h 3.7 km/h 88 % 0 mm
22:53 4.6 °C 2.6 °C 1014.4 hPa SSW 2.4 km/h 3.7 km/h 87 % 0 mm
22:58 4.7 °C 2.5 °C 1014.4 hPa SW 3.4 km/h 5.6 km/h 86 % 0 mm
23:03 4.8 °C 2.6 °C 1014.4 hPa WSW 2.9 km/h 9.7 km/h 86 % 0 mm
23:08 4.9 °C 2.6 °C 1014.4 hPa WSW 1.3 km/h 5.6 km/h 85 % 0 mm
23:13 4.9 °C 2.4 °C 1014.4 hPa WSW 4.8 km/h 7.4 km/h 84 % 0 mm
23:18 5 °C 2.5 °C 1014.4 hPa WSW 2.6 km/h 5.6 km/h 84 % 0 mm
23:23 5.1 °C 2.4 °C 1014.4 hPa SW 1.6 km/h 3.7 km/h 83 % 0 mm
23:28 5.2 °C 2.5 °C 1014.4 hPa SSW 3.5 km/h 9.3 km/h 83 % 0 mm
23:33 5.2 °C 2.3 °C 1014.1 hPa SW 1.9 km/h 3.7 km/h 82 % 0 mm
23:38 5.2 °C 2.3 °C 1014.1 hPa SW 0.8 km/h 3.7 km/h 82 % 0 mm
23:43 5.2 °C 2.2 °C 1014.1 hPa WSW 1.1 km/h 5.6 km/h 81 % 0 mm
23:48 5.2 °C 2.2 °C 1014.1 hPa WSW 1.9 km/h 7.4 km/h 81 % 0 mm
23:53 5.2 °C 1.8 °C 1014.1 hPa WSW 2.9 km/h 7.4 km/h 79 % 0 mm
23:58 5.2 °C 1.8 °C 1014.1 hPa SW 0.5 km/h 3.7 km/h 79 % 0 mm
Crab Meadow Weather
Compliments of Weather Underground - 3 mb

Script developed by  Jim McMurry - jmcmurry@mwt.net Adapted for the template by  Wim van der Kuil - Leuven-Template.eu

Extremes: The most widespread U.S. cold wave was in February of 1899. It was so cold that the Mississippi River froze over its entire length, with ice as thick as two inches even in New Orleans.